Location: *
(46.1866°S, 178.5290°W)
Time: 09:35:09
(UTC+00:00)

Cosmos 1461 - Pass Details

Date: 04 October 2021
Orbit: 520 x 642 km, 65.0° (Epoch: 20 October)

Event Time Altitude Azimuth Distance (km) Brightness Sun altitude
Rises 07:52:46 0° 315° (NW) 2,728 6.6 -18.3°
Reaches altitude 10° 07:54:57 10° 311° (NW) 1,859 5.8 -18.7°
Maximum altitude 07:59:05 59° 230° (SW) 681 3.5 -19.3°
Drops below altitude 10° 08:03:26 10° 150° (SSE) 1,957 5.6 -19.9°
Sets 08:05:48 0° 146° (SE) 2,888 6.5 -20.3°
